Year,Month,Day,Hour,Minute,Value (Times are PST for temperature in C)
2015,07,04,00,00,14.80
2015,07,04,00,01,14.80
2015,07,04,00,02,14.80
2015,07,04,00,03,14.80
2015,07,04,00,04,14.80
2015,07,04,00,05,14.70
2015,07,04,00,06,14.70
2015,07,04,00,07,14.70
2015,07,04,00,08,14.60
2015,07,04,00,09,14.60
2015,07,04,00,10,14.60
2015,07,04,00,11,14.60
2015,07,04,00,12,14.60
2015,07,04,00,13,14.60
2015,07,04,00,14,14.60
2015,07,04,00,15,14.60
2015,07,04,00,16,14.60
2015,07,04,00,17,14.60
2015,07,04,00,18,14.60
2015,07,04,00,19,14.60
2015,07,04,00,20,14.60
2015,07,04,00,21,14.60
2015,07,04,00,22,14.60
2015,07,04,00,23,14.60
2015,07,04,00,24,14.60
2015,07,04,00,25,14.60
2015,07,04,00,26,14.50
2015,07,04,00,27,14.50
2015,07,04,00,28,14.50
2015,07,04,00,29,14.50
2015,07,04,00,30,14.50
2015,07,04,00,31,14.50
2015,07,04,00,32,14.50
2015,07,04,00,33,14.50
2015,07,04,00,34,14.50
2015,07,04,00,35,14.50
2015,07,04,00,36,14.50
2015,07,04,00,37,14.50
2015,07,04,00,38,14.50
2015,07,04,00,39,14.50
2015,07,04,00,40,14.50
2015,07,04,00,41,14.60
2015,07,04,00,42,14.60
2015,07,04,00,43,14.60
2015,07,04,00,44,14.50
2015,07,04,00,45,14.50
2015,07,04,00,46,14.50
2015,07,04,00,47,14.50
2015,07,04,00,48,14.50
2015,07,04,00,49,14.40
2015,07,04,00,50,14.40
2015,07,04,00,51,14.40
2015,07,04,00,52,14.40
2015,07,04,00,53,14.40
2015,07,04,00,54,14.40
2015,07,04,00,55,14.40
2015,07,04,00,56,14.40
2015,07,04,00,57,14.40
2015,07,04,00,58,14.30
2015,07,04,00,59,14.30
2015,07,04,01,00,14.30
2015,07,04,01,01,14.30
2015,07,04,01,02,14.30
2015,07,04,01,03,14.40
2015,07,04,01,04,14.60
2015,07,04,01,05,14.80
2015,07,04,01,06,15.00
2015,07,04,01,07,15.30
2015,07,04,01,08,15.60
2015,07,04,01,09,15.90
2015,07,04,01,10,16.20
2015,07,04,01,11,16.50
2015,07,04,01,12,16.70
2015,07,04,01,13,16.90
2015,07,04,01,14,17.10
2015,07,04,01,15,17.20
2015,07,04,01,16,17.20
2015,07,04,01,17,17.30
2015,07,04,01,18,17.30
2015,07,04,01,19,17.30
2015,07,04,01,20,17.30
2015,07,04,01,21,17.40
2015,07,04,01,22,17.40
2015,07,04,01,23,17.50
2015,07,04,01,24,17.50
2015,07,04,01,25,17.60
2015,07,04,01,26,17.60
2015,07,04,01,27,17.60
2015,07,04,01,28,17.60
2015,07,04,01,29,17.60
2015,07,04,01,30,17.60
2015,07,04,01,31,17.60
2015,07,04,01,32,17.70
2015,07,04,01,33,17.70
2015,07,04,01,34,17.70
2015,07,04,01,35,17.70
2015,07,04,01,36,17.70
2015,07,04,01,37,17.70
2015,07,04,01,38,17.70
2015,07,04,01,39,17.70
2015,07,04,01,40,17.70
2015,07,04,01,41,17.80
2015,07,04,01,42,17.80
2015,07,04,01,43,17.80
2015,07,04,01,44,17.80
2015,07,04,01,45,17.70
2015,07,04,01,46,17.70
2015,07,04,01,47,17.70
2015,07,04,01,48,17.70
2015,07,04,01,49,17.70
2015,07,04,01,50,17.60
2015,07,04,01,51,17.60
2015,07,04,01,52,17.60
2015,07,04,01,53,17.60
2015,07,04,01,54,17.50
2015,07,04,01,55,17.50
2015,07,04,01,56,17.50
2015,07,04,01,57,17.40
2015,07,04,01,58,17.40
2015,07,04,01,59,17.40
2015,07,04,02,00,17.30
2015,07,04,02,01,17.30
2015,07,04,02,02,17.30
2015,07,04,02,03,17.30
2015,07,04,02,04,17.20
2015,07,04,02,05,17.20
2015,07,04,02,06,17.20
2015,07,04,02,07,17.10
2015,07,04,02,08,17.10
2015,07,04,02,09,17.00
2015,07,04,02,10,17.00
2015,07,04,02,11,16.90
2015,07,04,02,12,16.90
2015,07,04,02,13,16.80
2015,07,04,02,14,16.80
2015,07,04,02,15,16.70
2015,07,04,02,16,16.70
2015,07,04,02,17,16.60
2015,07,04,02,18,16.60
2015,07,04,02,19,16.50
2015,07,04,02,20,16.50
2015,07,04,02,21,16.40
2015,07,04,02,22,16.40
2015,07,04,02,23,16.30
2015,07,04,02,24,16.30
2015,07,04,02,25,16.20
2015,07,04,02,26,16.20
2015,07,04,02,27,16.10
2015,07,04,02,28,16.10
2015,07,04,02,29,16.00
2015,07,04,02,30,15.90
2015,07,04,02,31,15.90
2015,07,04,02,32,15.90
2015,07,04,02,33,15.80
2015,07,04,02,34,15.80
2015,07,04,02,35,15.70
2015,07,04,02,36,15.70
2015,07,04,02,37,15.70
2015,07,04,02,38,15.60
2015,07,04,02,39,15.50
2015,07,04,02,40,15.50
2015,07,04,02,41,15.40
2015,07,04,02,42,15.40
2015,07,04,02,43,15.30
2015,07,04,02,44,15.30
2015,07,04,02,45,15.20
2015,07,04,02,46,15.20
2015,07,04,02,47,15.10
2015,07,04,02,48,15.10
2015,07,04,02,49,15.10
2015,07,04,02,50,15.00
2015,07,04,02,51,15.00
2015,07,04,02,52,14.90
2015,07,04,02,53,14.90
2015,07,04,02,54,14.90
2015,07,04,02,55,14.80
2015,07,04,02,56,14.80
2015,07,04,02,57,14.80
2015,07,04,02,58,14.70
2015,07,04,02,59,14.70
2015,07,04,03,00,14.70
2015,07,04,03,01,14.70
2015,07,04,03,02,14.60
2015,07,04,03,03,14.60
2015,07,04,03,04,14.60
2015,07,04,03,05,14.60
2015,07,04,03,06,14.60
2015,07,04,03,07,14.50
2015,07,04,03,08,14.50
2015,07,04,03,09,14.50
2015,07,04,03,10,14.40
2015,07,04,03,11,14.40
2015,07,04,03,12,14.40
2015,07,04,03,13,14.40
2015,07,04,03,14,14.40
2015,07,04,03,15,14.40
2015,07,04,03,16,14.30
2015,07,04,03,17,14.30
2015,07,04,03,18,14.30
2015,07,04,03,19,14.30
2015,07,04,03,20,14.30
2015,07,04,03,21,14.30
2015,07,04,03,22,14.30
2015,07,04,03,23,14.40
2015,07,04,03,24,14.40
2015,07,04,03,25,14.40
2015,07,04,03,26,14.40
2015,07,04,03,27,14.40
2015,07,04,03,28,14.40
2015,07,04,03,29,14.40
2015,07,04,03,30,14.40
2015,07,04,03,31,14.40
2015,07,04,03,32,14.40
2015,07,04,03,33,14.40
2015,07,04,03,34,14.40
2015,07,04,03,35,14.40
2015,07,04,03,36,14.40
2015,07,04,03,37,14.40
2015,07,04,03,38,14.50
2015,07,04,03,39,14.50
2015,07,04,03,40,14.50
2015,07,04,03,41,14.50
2015,07,04,03,42,14.50
2015,07,04,03,43,14.50
2015,07,04,03,44,14.50
2015,07,04,03,45,14.50
2015,07,04,03,46,14.50
2015,07,04,03,47,14.50
2015,07,04,03,48,14.50
2015,07,04,03,49,14.50
2015,07,04,03,50,14.50
2015,07,04,03,51,14.50
2015,07,04,03,52,14.50
2015,07,04,03,53,14.50
2015,07,04,03,54,14.50
2015,07,04,03,55,14.40
2015,07,04,03,56,14.40
2015,07,04,03,57,14.40
2015,07,04,03,58,14.40
2015,07,04,03,59,14.40
2015,07,04,04,00,14.40
2015,07,04,04,01,14.40
2015,07,04,04,02,14.40
2015,07,04,04,03,14.40
2015,07,04,04,04,14.40
2015,07,04,04,05,14.40
2015,07,04,04,06,14.40
2015,07,04,04,07,14.40
2015,07,04,04,08,14.40
2015,07,04,04,09,14.30
2015,07,04,04,10,14.30
2015,07,04,04,11,14.30
2015,07,04,04,12,14.30
2015,07,04,04,13,14.30
2015,07,04,04,14,14.30
2015,07,04,04,15,14.30
2015,07,04,04,16,14.30
2015,07,04,04,17,14.20
2015,07,04,04,18,14.20
2015,07,04,04,19,14.20
2015,07,04,04,20,14.20
2015,07,04,04,21,14.20
2015,07,04,04,22,14.20
2015,07,04,04,23,14.20
2015,07,04,04,24,14.20
2015,07,04,04,25,14.20
2015,07,04,04,26,14.10
2015,07,04,04,27,14.20
2015,07,04,04,28,14.20
2015,07,04,04,29,14.20
2015,07,04,04,30,14.20
2015,07,04,04,31,14.20
2015,07,04,04,32,14.10
2015,07,04,04,33,14.10
2015,07,04,04,34,14.10
2015,07,04,04,35,14.10
2015,07,04,04,36,14.10
2015,07,04,04,37,14.10
2015,07,04,04,38,14.10
2015,07,04,04,39,14.00
2015,07,04,04,40,14.00
2015,07,04,04,41,13.90
2015,07,04,04,42,13.80
2015,07,04,04,43,13.80
2015,07,04,04,44,13.80
2015,07,04,04,45,13.70
2015,07,04,04,46,13.70
2015,07,04,04,47,13.70
2015,07,04,04,48,13.60
2015,07,04,04,49,13.60
2015,07,04,04,50,13.60
2015,07,04,04,51,13.60
2015,07,04,04,52,13.50
2015,07,04,04,53,13.50
2015,07,04,04,54,13.50
2015,07,04,04,55,13.40
2015,07,04,04,56,13.40
2015,07,04,04,57,13.40
2015,07,04,04,58,13.30
2015,07,04,04,59,13.30
2015,07,04,05,00,13.20
2015,07,04,05,01,13.20
2015,07,04,05,02,13.10
2015,07,04,05,03,13.00
2015,07,04,05,04,13.00
2015,07,04,05,05,12.90
2015,07,04,05,06,12.90
2015,07,04,05,07,12.80
2015,07,04,05,08,12.80
2015,07,04,05,09,12.80
2015,07,04,05,10,12.70
2015,07,04,05,11,12.70
2015,07,04,05,12,12.70
2015,07,04,05,13,12.70
2015,07,04,05,14,12.70
2015,07,04,05,15,12.70
2015,07,04,05,16,12.60
2015,07,04,05,17,12.60
2015,07,04,05,18,12.60
2015,07,04,05,19,12.60
2015,07,04,05,20,12.60
2015,07,04,05,21,12.60
2015,07,04,05,22,12.60
2015,07,04,05,23,12.60
2015,07,04,05,24,12.50
2015,07,04,05,25,12.50
2015,07,04,05,26,12.50
2015,07,04,05,27,12.40
2015,07,04,05,28,12.40
2015,07,04,05,29,12.40
2015,07,04,05,30,12.40
2015,07,04,05,31,12.30
2015,07,04,05,32,12.30
2015,07,04,05,33,12.30
2015,07,04,05,34,12.30
2015,07,04,05,35,12.30
2015,07,04,05,36,12.30
2015,07,04,05,37,12.20
2015,07,04,05,38,12.20
2015,07,04,05,39,12.20
2015,07,04,05,40,12.20
2015,07,04,05,41,12.20
2015,07,04,05,42,12.20
2015,07,04,05,43,12.20
2015,07,04,05,44,12.10
2015,07,04,05,45,12.10
2015,07,04,05,46,12.10
2015,07,04,05,47,12.10
2015,07,04,05,48,12.10
2015,07,04,05,49,12.10
2015,07,04,05,50,12.10
2015,07,04,05,51,12.10
2015,07,04,05,52,12.10
2015,07,04,05,53,12.10
2015,07,04,05,54,12.10
2015,07,04,05,55,12.10
2015,07,04,05,56,12.10
2015,07,04,05,57,12.10
2015,07,04,05,58,12.10
2015,07,04,05,59,12.10
2015,07,04,06,00,12.10
2015,07,04,06,01,12.10
2015,07,04,06,02,12.10
2015,07,04,06,03,12.10
2015,07,04,06,04,12.10
2015,07,04,06,05,12.10
2015,07,04,06,06,12.10
2015,07,04,06,07,12.10
2015,07,04,06,08,12.20
2015,07,04,06,09,12.20
2015,07,04,06,10,12.20
2015,07,04,06,11,12.20
2015,07,04,06,12,12.20
2015,07,04,06,13,12.20
2015,07,04,06,14,12.10
2015,07,04,06,15,12.10
2015,07,04,06,16,12.10
2015,07,04,06,17,12.10
2015,07,04,06,18,12.10
2015,07,04,06,19,12.10
2015,07,04,06,20,12.10
2015,07,04,06,21,12.10
2015,07,04,06,22,12.10
2015,07,04,06,23,12.10
2015,07,04,06,24,12.10
2015,07,04,06,25,12.10
2015,07,04,06,26,12.10
2015,07,04,06,27,12.10
2015,07,04,06,28,12.10
2015,07,04,06,29,12.10
2015,07,04,06,30,12.10
2015,07,04,06,31,12.10
2015,07,04,06,32,12.20
2015,07,04,06,33,12.20
2015,07,04,06,34,12.30
2015,07,04,06,35,12.30
2015,07,04,06,36,12.30
2015,07,04,06,37,12.30
2015,07,04,06,38,12.30
2015,07,04,06,39,12.40
2015,07,04,06,40,12.40
2015,07,04,06,41,12.50
2015,07,04,06,42,12.50
2015,07,04,06,43,12.60
2015,07,04,06,44,12.60
2015,07,04,06,45,12.70
2015,07,04,06,46,12.70
2015,07,04,06,47,12.80
2015,07,04,06,48,12.90
2015,07,04,06,49,12.90
2015,07,04,06,50,13.00
2015,07,04,06,51,13.10
2015,07,04,06,52,13.10
2015,07,04,06,53,13.20
2015,07,04,06,54,13.20
2015,07,04,06,55,13.30
2015,07,04,06,56,13.40
2015,07,04,06,57,13.40
2015,07,04,06,58,13.50
2015,07,04,06,59,13.60
2015,07,04,07,00,13.60
2015,07,04,07,01,13.70
2015,07,04,07,02,13.70
2015,07,04,07,03,13.80
2015,07,04,07,04,13.90
2015,07,04,07,05,13.90
2015,07,04,07,06,14.00
2015,07,04,07,07,14.10
2015,07,04,07,08,14.20
2015,07,04,07,09,14.20
2015,07,04,07,10,14.30
2015,07,04,07,11,14.30
2015,07,04,07,12,14.40
2015,07,04,07,13,14.50
2015,07,04,07,14,14.50
2015,07,04,07,15,14.60
2015,07,04,07,16,14.70
2015,07,04,07,17,14.70
2015,07,04,07,18,14.80
2015,07,04,07,19,14.80
2015,07,04,07,20,14.90
2015,07,04,07,21,14.90
2015,07,04,07,22,15.00
2015,07,04,07,23,15.10
2015,07,04,07,24,15.20
2015,07,04,07,25,15.20
2015,07,04,07,26,15.30
2015,07,04,07,27,15.40
2015,07,04,07,28,15.40
2015,07,04,07,29,15.50
2015,07,04,07,30,15.50
2015,07,04,07,31,15.60
2015,07,04,07,32,15.60
2015,07,04,07,33,15.60
2015,07,04,07,34,15.70
2015,07,04,07,35,15.70
2015,07,04,07,36,15.80
2015,07,04,07,37,15.80
2015,07,04,07,38,15.80
2015,07,04,07,39,15.80
2015,07,04,07,40,15.80
2015,07,04,07,41,15.90
2015,07,04,07,42,15.90
2015,07,04,07,43,16.00
2015,07,04,07,44,16.00
2015,07,04,07,45,16.10
2015,07,04,07,46,16.20
2015,07,04,07,47,16.20
2015,07,04,07,48,16.20
2015,07,04,07,49,16.30
2015,07,04,07,50,16.30
2015,07,04,07,51,16.30
2015,07,04,07,52,16.40
2015,07,04,07,53,16.40
2015,07,04,07,54,16.40
2015,07,04,07,55,16.40
2015,07,04,07,56,16.50
2015,07,04,07,57,16.50
2015,07,04,07,58,16.60
2015,07,04,07,59,16.60
2015,07,04,08,00,16.60
2015,07,04,08,01,16.60
2015,07,04,08,02,16.70
2015,07,04,08,03,16.70
2015,07,04,08,04,16.80
2015,07,04,08,05,16.80
2015,07,04,08,06,16.80
2015,07,04,08,07,16.90
2015,07,04,08,08,16.90
2015,07,04,08,09,16.90
2015,07,04,08,10,16.90
2015,07,04,08,11,16.90
2015,07,04,08,12,17.00
2015,07,04,08,13,17.00
2015,07,04,08,14,17.00
2015,07,04,08,15,17.10
2015,07,04,08,16,17.10
2015,07,04,08,17,17.20
2015,07,04,08,18,17.30
2015,07,04,08,19,17.30
2015,07,04,08,20,17.30
2015,07,04,08,21,17.30
2015,07,04,08,22,17.30
2015,07,04,08,23,17.20
2015,07,04,08,24,17.20
2015,07,04,08,25,17.20
2015,07,04,08,26,17.20
2015,07,04,08,27,17.20
2015,07,04,08,28,17.20
2015,07,04,08,29,17.20
2015,07,04,08,30,17.30
2015,07,04,08,31,17.30
2015,07,04,08,32,17.30
2015,07,04,08,33,17.30
2015,07,04,08,34,17.30
2015,07,04,08,35,17.30
2015,07,04,08,36,17.30
2015,07,04,08,37,17.30
2015,07,04,08,38,17.30
2015,07,04,08,39,17.30
2015,07,04,08,40,17.30
2015,07,04,08,41,17.30
2015,07,04,08,42,17.30
2015,07,04,08,43,17.30
2015,07,04,08,44,17.30
2015,07,04,08,45,17.30
2015,07,04,08,46,17.40
2015,07,04,08,47,17.40
2015,07,04,08,48,17.50
2015,07,04,08,49,17.50
2015,07,04,08,50,17.50
2015,07,04,08,51,17.60
2015,07,04,08,52,17.60
2015,07,04,08,53,17.60
2015,07,04,08,54,17.70
2015,07,04,08,55,17.70
2015,07,04,08,56,17.70
2015,07,04,08,57,17.70
2015,07,04,08,58,17.70
2015,07,04,08,59,17.80
2015,07,04,09,00,17.80
2015,07,04,09,01,17.80
2015,07,04,09,02,17.80
2015,07,04,09,03,17.90
2015,07,04,09,04,17.90
2015,07,04,09,05,18.00
2015,07,04,09,06,18.10
2015,07,04,09,07,18.20
2015,07,04,09,08,18.30
2015,07,04,09,09,18.30
2015,07,04,09,10,18.40
2015,07,04,09,11,18.30
2015,07,04,09,12,18.30
2015,07,04,09,13,18.30
2015,07,04,09,14,18.30
2015,07,04,09,15,18.40
2015,07,04,09,16,18.40
2015,07,04,09,17,18.50
2015,07,04,09,18,18.60
2015,07,04,09,19,18.70
2015,07,04,09,20,18.80
2015,07,04,09,21,18.80
2015,07,04,09,22,18.80
2015,07,04,09,23,18.80
2015,07,04,09,24,18.70
2015,07,04,09,25,18.70
2015,07,04,09,26,18.60
2015,07,04,09,27,18.50
2015,07,04,09,28,18.40
2015,07,04,09,29,18.40
2015,07,04,09,30,18.40
2015,07,04,09,31,18.50
2015,07,04,09,32,18.60
2015,07,04,09,33,18.70
2015,07,04,09,34,18.70
2015,07,04,09,35,18.80
2015,07,04,09,36,18.80
2015,07,04,09,37,18.90
2015,07,04,09,38,18.90
2015,07,04,09,39,18.90
2015,07,04,09,40,18.90
2015,07,04,09,41,18.90
2015,07,04,09,42,19.00
2015,07,04,09,43,19.00
2015,07,04,09,44,19.00
2015,07,04,09,45,18.90
2015,07,04,09,46,18.90
2015,07,04,09,47,18.90
2015,07,04,09,48,18.90
2015,07,04,09,49,18.80
2015,07,04,09,50,18.70
2015,07,04,09,51,18.60
2015,07,04,09,52,18.50
2015,07,04,09,53,18.30
2015,07,04,09,54,18.20
2015,07,04,09,55,18.10
2015,07,04,09,56,18.00
2015,07,04,09,57,18.00
2015,07,04,09,58,17.90
2015,07,04,09,59,17.80
2015,07,04,10,00,17.80
2015,07,04,10,01,17.80
2015,07,04,10,02,17.80
2015,07,04,10,03,17.80
2015,07,04,10,04,17.80
2015,07,04,10,05,17.80
2015,07,04,10,06,17.70
2015,07,04,10,07,17.70
2015,07,04,10,08,17.60
2015,07,04,10,09,17.50
2015,07,04,10,10,17.50
2015,07,04,10,11,17.40
2015,07,04,10,12,17.40
2015,07,04,10,13,17.30
2015,07,04,10,14,17.30
2015,07,04,10,15,17.20
2015,07,04,10,16,17.20
2015,07,04,10,17,17.20
2015,07,04,10,18,17.10
2015,07,04,10,19,17.10
2015,07,04,10,20,17.10
2015,07,04,10,21,17.10
2015,07,04,10,22,17.10
2015,07,04,10,23,17.10
2015,07,04,10,24,17.10
2015,07,04,10,25,17.10
2015,07,04,10,26,17.10
2015,07,04,10,27,17.10
2015,07,04,10,28,17.10
2015,07,04,10,29,17.00
2015,07,04,10,30,16.90
2015,07,04,10,31,16.90
2015,07,04,10,32,17.00
2015,07,04,10,33,17.10
2015,07,04,10,34,17.10
2015,07,04,10,35,17.20
2015,07,04,10,36,17.20
2015,07,04,10,37,17.20
2015,07,04,10,38,17.30
2015,07,04,10,39,17.30
2015,07,04,10,40,17.40
2015,07,04,10,41,17.40
2015,07,04,10,42,17.40
2015,07,04,10,43,17.50
2015,07,04,10,44,17.60
2015,07,04,10,45,17.70
2015,07,04,10,46,17.80
2015,07,04,10,47,17.80
2015,07,04,10,48,17.80
2015,07,04,10,49,17.90
2015,07,04,10,50,17.90
2015,07,04,10,51,18.00
2015,07,04,10,52,18.10
2015,07,04,10,53,18.10
2015,07,04,10,54,18.20
2015,07,04,10,55,18.20
2015,07,04,10,56,18.30
2015,07,04,10,57,18.30
2015,07,04,10,58,18.40
2015,07,04,10,59,18.50
2015,07,04,11,00,18.60
2015,07,04,11,01,18.60
2015,07,04,11,02,18.60
2015,07,04,11,03,18.60
2015,07,04,11,04,18.60
2015,07,04,11,05,18.60
2015,07,04,11,06,18.60
2015,07,04,11,07,18.60
2015,07,04,11,08,18.60
2015,07,04,11,09,18.50
2015,07,04,11,10,18.40
2015,07,04,11,11,18.30
2015,07,04,11,12,18.20
2015,07,04,11,13,18.20
2015,07,04,11,14,18.30
2015,07,04,11,15,18.30
2015,07,04,11,16,18.30
2015,07,04,11,17,18.30
2015,07,04,11,18,18.30
2015,07,04,11,19,18.30
2015,07,04,11,20,18.40
2015,07,04,11,21,18.50
2015,07,04,11,22,18.50
2015,07,04,11,23,18.50
2015,07,04,11,24,18.50
2015,07,04,11,25,18.50
2015,07,04,11,26,18.60
2015,07,04,11,27,18.70
2015,07,04,11,28,18.80
2015,07,04,11,29,18.80
2015,07,04,11,30,18.70
2015,07,04,11,31,18.70
2015,07,04,11,32,18.80
2015,07,04,11,33,18.80
2015,07,04,11,34,18.80
2015,07,04,11,35,18.80
2015,07,04,11,36,18.80
2015,07,04,11,37,18.80
2015,07,04,11,38,18.80
2015,07,04,11,39,18.80
2015,07,04,11,40,18.80
2015,07,04,11,41,18.80
2015,07,04,11,42,18.80
2015,07,04,11,43,18.80
2015,07,04,11,44,18.70
2015,07,04,11,45,18.70
2015,07,04,11,46,18.70
2015,07,04,11,47,18.70
2015,07,04,11,48,18.70
2015,07,04,11,49,18.70
2015,07,04,11,50,18.80
2015,07,04,11,51,18.80
2015,07,04,11,52,18.80
2015,07,04,11,53,18.80
2015,07,04,11,54,18.80
2015,07,04,11,55,18.80
2015,07,04,11,56,18.80
2015,07,04,11,57,18.80
2015,07,04,11,58,18.90
2015,07,04,11,59,18.90
2015,07,04,12,00,18.90
2015,07,04,12,01,18.90
2015,07,04,12,02,18.90
2015,07,04,12,03,18.90
2015,07,04,12,04,18.90
2015,07,04,12,05,18.90
2015,07,04,12,06,18.80
2015,07,04,12,07,18.60
2015,07,04,12,08,18.40
2015,07,04,12,09,18.30
2015,07,04,12,10,18.20
2015,07,04,12,11,18.20
2015,07,04,12,12,18.20
2015,07,04,12,13,18.10
2015,07,04,12,14,18.10
2015,07,04,12,15,18.10
2015,07,04,12,16,18.10
2015,07,04,12,17,18.10
2015,07,04,12,18,18.20
2015,07,04,12,19,18.10
2015,07,04,12,20,18.10
2015,07,04,12,21,18.00
2015,07,04,12,22,18.00
2015,07,04,12,23,17.90
2015,07,04,12,24,17.90
2015,07,04,12,25,18.00
2015,07,04,12,26,18.10
2015,07,04,12,27,18.10
2015,07,04,12,28,18.00
2015,07,04,12,29,18.00
2015,07,04,12,30,18.10
2015,07,04,12,31,18.20
2015,07,04,12,32,18.30
2015,07,04,12,33,18.40
2015,07,04,12,34,18.60
2015,07,04,12,35,18.60
2015,07,04,12,36,18.70
2015,07,04,12,37,18.70
2015,07,04,12,38,18.70
2015,07,04,12,39,18.70
2015,07,04,12,40,18.60
2015,07,04,12,41,18.60
2015,07,04,12,42,18.50
2015,07,04,12,43,18.50
2015,07,04,12,44,18.50
2015,07,04,12,45,18.60
2015,07,04,12,46,18.70
2015,07,04,12,47,18.80
2015,07,04,12,48,18.90
2015,07,04,12,49,19.00
2015,07,04,12,50,19.10
2015,07,04,12,51,19.10
2015,07,04,12,52,19.10
2015,07,04,12,53,19.10
2015,07,04,12,54,19.10
2015,07,04,12,55,19.20
2015,07,04,12,56,19.20
2015,07,04,12,57,19.20
2015,07,04,12,58,19.20
2015,07,04,12,59,19.30
2015,07,04,13,00,19.40
2015,07,04,13,01,19.50
2015,07,04,13,02,19.60
2015,07,04,13,03,19.70
2015,07,04,13,04,19.80
2015,07,04,13,05,19.80
2015,07,04,13,06,19.80
2015,07,04,13,07,19.90
2015,07,04,13,08,20.00
2015,07,04,13,09,20.10
2015,07,04,13,10,20.10
2015,07,04,13,11,20.20
2015,07,04,13,12,20.30
2015,07,04,13,13,20.30
2015,07,04,13,14,20.40
2015,07,04,13,15,20.50
2015,07,04,13,16,20.60
2015,07,04,13,17,20.60
2015,07,04,13,18,20.60
2015,07,04,13,19,20.70
2015,07,04,13,20,20.80
2015,07,04,13,21,20.90
2015,07,04,13,22,21.00
2015,07,04,13,23,20.90
2015,07,04,13,24,20.90
2015,07,04,13,25,21.00
2015,07,04,13,26,21.10
2015,07,04,13,27,21.10
2015,07,04,13,28,21.20
2015,07,04,13,29,21.30
2015,07,04,13,30,21.30
2015,07,04,13,31,21.40
2015,07,04,13,32,21.50
2015,07,04,13,33,21.60
2015,07,04,13,34,21.60
2015,07,04,13,35,21.60
2015,07,04,13,36,21.80
2015,07,04,13,37,21.90
2015,07,04,13,38,22.00
2015,07,04,13,39,22.10
2015,07,04,13,40,22.20
2015,07,04,13,41,22.20
2015,07,04,13,42,22.30
2015,07,04,13,43,22.30
2015,07,04,13,44,22.30
2015,07,04,13,45,22.30
2015,07,04,13,46,22.30
2015,07,04,13,47,22.30
2015,07,04,13,48,22.20
2015,07,04,13,49,22.00
2015,07,04,13,50,21.90
2015,07,04,13,51,21.80
2015,07,04,13,52,21.80
2015,07,04,13,53,21.70
2015,07,04,13,54,21.70
2015,07,04,13,55,21.70
2015,07,04,13,56,21.70
2015,07,04,13,57,21.80
2015,07,04,13,58,21.80
2015,07,04,13,59,21.80
2015,07,04,14,00,21.90
2015,07,04,14,01,22.00
2015,07,04,14,02,22.00
2015,07,04,14,03,22.00
2015,07,04,14,04,21.90
2015,07,04,14,05,21.80
2015,07,04,14,06,21.70
2015,07,04,14,07,21.60
2015,07,04,14,08,21.30
2015,07,04,14,09,21.10
2015,07,04,14,10,20.90
2015,07,04,14,11,20.80
2015,07,04,14,12,20.80
2015,07,04,14,13,20.80
2015,07,04,14,14,20.80
2015,07,04,14,15,20.70
2015,07,04,14,16,20.70
2015,07,04,14,17,20.60
2015,07,04,14,18,20.60
2015,07,04,14,19,20.70
2015,07,04,14,20,20.80
2015,07,04,14,21,20.80
2015,07,04,14,22,20.80
2015,07,04,14,23,20.80
2015,07,04,14,24,20.70
2015,07,04,14,25,20.70
2015,07,04,14,26,20.60
2015,07,04,14,27,20.70
2015,07,04,14,28,20.70
2015,07,04,14,29,20.70
2015,07,04,14,30,20.60
2015,07,04,14,31,20.40
2015,07,04,14,32,20.20
2015,07,04,14,33,20.10
2015,07,04,14,34,20.00
2015,07,04,14,35,20.00
2015,07,04,14,36,20.00
2015,07,04,14,37,20.00
2015,07,04,14,38,20.20
2015,07,04,14,39,20.30
2015,07,04,14,40,20.40
2015,07,04,14,41,20.60
2015,07,04,14,42,20.70
2015,07,04,14,43,20.80
2015,07,04,14,44,20.90
2015,07,04,14,45,21.00
2015,07,04,14,46,21.00
2015,07,04,14,47,21.10
2015,07,04,14,48,21.00
2015,07,04,14,49,20.90
2015,07,04,14,50,20.70
2015,07,04,14,51,20.70
2015,07,04,14,52,20.80
2015,07,04,14,53,20.80
2015,07,04,14,54,20.80
2015,07,04,14,55,20.80
2015,07,04,14,56,20.90
2015,07,04,14,57,20.80
2015,07,04,14,58,20.80
2015,07,04,14,59,20.90
2015,07,04,15,00,20.90
2015,07,04,15,01,20.80
2015,07,04,15,02,20.70
2015,07,04,15,03,20.60
2015,07,04,15,04,20.60
2015,07,04,15,05,20.60
2015,07,04,15,06,20.60
2015,07,04,15,07,20.60
2015,07,04,15,08,20.80
2015,07,04,15,09,20.90
2015,07,04,15,10,20.90
2015,07,04,15,11,20.80
2015,07,04,15,12,20.60
2015,07,04,15,13,20.40
2015,07,04,15,14,20.20
2015,07,04,15,15,20.00
2015,07,04,15,16,20.00
2015,07,04,15,17,19.90
2015,07,04,15,18,19.90
2015,07,04,15,19,19.90
2015,07,04,15,20,19.80
2015,07,04,15,21,19.70
2015,07,04,15,22,19.60
2015,07,04,15,23,19.60
2015,07,04,15,24,19.60
2015,07,04,15,25,19.60
2015,07,04,15,26,19.70
2015,07,04,15,27,19.80
2015,07,04,15,28,19.80
2015,07,04,15,29,19.80
2015,07,04,15,30,19.90
2015,07,04,15,31,19.90
2015,07,04,15,32,19.90
2015,07,04,15,33,20.00
2015,07,04,15,34,19.90
2015,07,04,15,35,19.90
2015,07,04,15,36,19.90
2015,07,04,15,37,20.00
2015,07,04,15,38,20.00
2015,07,04,15,39,20.00
2015,07,04,15,40,20.00
2015,07,04,15,41,20.00
2015,07,04,15,42,20.00
2015,07,04,15,43,19.90
2015,07,04,15,44,19.90
2015,07,04,15,45,19.90
2015,07,04,15,46,19.90
2015,07,04,15,47,19.80
2015,07,04,15,48,19.80
2015,07,04,15,49,19.80
2015,07,04,15,50,19.80
2015,07,04,15,51,19.90
2015,07,04,15,52,20.00
2015,07,04,15,53,20.10
2015,07,04,15,54,20.20
2015,07,04,15,55,20.20
2015,07,04,15,56,20.20
2015,07,04,15,57,20.20
2015,07,04,15,58,20.20
2015,07,04,15,59,20.20
2015,07,04,16,00,20.20
2015,07,04,16,01,20.10
2015,07,04,16,02,20.10
2015,07,04,16,03,20.00
2015,07,04,16,04,20.00
2015,07,04,16,05,20.00
2015,07,04,16,06,20.00
2015,07,04,16,07,20.10
2015,07,04,16,08,20.20
2015,07,04,16,09,20.20
2015,07,04,16,10,20.20
2015,07,04,16,11,20.20
2015,07,04,16,12,20.10
2015,07,04,16,13,20.10
2015,07,04,16,14,20.00
2015,07,04,16,15,19.90
2015,07,04,16,16,19.90
2015,07,04,16,17,20.00
2015,07,04,16,18,20.10
2015,07,04,16,19,20.10
2015,07,04,16,20,20.10
2015,07,04,16,21,20.10
2015,07,04,16,22,20.10
2015,07,04,16,23,20.20
2015,07,04,16,24,20.20
2015,07,04,16,25,20.20
2015,07,04,16,26,20.10
2015,07,04,16,27,20.10
2015,07,04,16,28,20.00
2015,07,04,16,29,19.90
2015,07,04,16,30,19.90
2015,07,04,16,31,19.90
2015,07,04,16,32,20.00
2015,07,04,16,33,20.00
2015,07,04,16,34,20.10
2015,07,04,16,35,20.10
2015,07,04,16,36,20.20
2015,07,04,16,37,20.20
2015,07,04,16,38,20.20
2015,07,04,16,39,20.30
2015,07,04,16,40,20.40
2015,07,04,16,41,20.40
2015,07,04,16,42,20.30
2015,07,04,16,43,20.20
2015,07,04,16,44,20.10
2015,07,04,16,45,19.90
2015,07,04,16,46,19.90
2015,07,04,16,47,19.80
2015,07,04,16,48,19.70
2015,07,04,16,49,19.80
2015,07,04,16,50,19.70
2015,07,04,16,51,19.70
2015,07,04,16,52,19.70
2015,07,04,16,53,19.70
2015,07,04,16,54,19.70
2015,07,04,16,55,19.70
2015,07,04,16,56,19.60
2015,07,04,16,57,19.60
2015,07,04,16,58,19.60
2015,07,04,16,59,19.60
2015,07,04,17,00,19.70
2015,07,04,17,01,19.70
2015,07,04,17,02,19.70
2015,07,04,17,03,19.70
2015,07,04,17,04,19.60
2015,07,04,17,05,19.50
2015,07,04,17,06,19.50
2015,07,04,17,07,19.60
2015,07,04,17,08,19.60
2015,07,04,17,09,19.70
2015,07,04,17,10,19.70
2015,07,04,17,11,19.70
2015,07,04,17,12,19.70
2015,07,04,17,13,19.70
2015,07,04,17,14,19.70
2015,07,04,17,15,19.60
2015,07,04,17,16,19.50
2015,07,04,17,17,19.50
2015,07,04,17,18,19.40
2015,07,04,17,19,19.40